N222HL KDCA-KRDU

Flight info

Callsign N222HL
Flight time 0h 46m
Altitude 34000
Route JDUBB4 MELTN ALDAN4
Aircraft CL60/M-SBDE1E2E3FGHIJ1J4J5J7M3RWXYZ/LB1V1D1

Departure

Time 2026-04-26 21:01
Airport Ronald Reagan Washington National Airport (KDCA)

Arrival

Time 2026-04-26 21:48
Airport Raleigh-Durham International Airport (KRDU)
Time Latitude Longitude Altitude Speed Heading
2026-04-26 20:41 38.84534 -77.04565 22 ft 0 kts 320°
2026-04-26 20:55 38.84536 -77.04568 22 ft 0 kts 320°
2026-04-26 20:55 38.84575 -77.04549 23 ft 4 kts 58°
2026-04-26 20:55 38.84576 -77.04546 23 ft 0 kts 58°
2026-04-26 20:57 38.84582 -77.04524 23 ft 12 kts 84°
2026-04-26 20:57 38.84568 -77.04390 22 ft 12 kts 104°
2026-04-26 20:57 38.84565 -77.04271 21 ft 14 kts 81°
2026-04-26 20:57 38.84589 -77.04125 20 ft 17 kts 76°
2026-04-26 20:58 38.84657 -77.04025 19 ft 15 kts 24°
2026-04-26 20:58 38.84740 -77.03964 20 ft 13 kts 60°
2026-04-26 20:58 38.84731 -77.03909 19 ft 2 kts 147°
2026-04-26 20:58 38.84679 -77.03873 19 ft 18 kts 153°
2026-04-26 20:59 38.84538 -77.03849 18 ft 22 kts 176°
2026-04-26 20:59 38.84394 -77.03840 17 ft 14 kts 177°
2026-04-26 20:59 38.84290 -77.03832 16 ft 17 kts 174°
2026-04-26 20:59 38.84213 -77.03803 16 ft 3 kts 134°
2026-04-26 21:00 38.84210 -77.03799 16 ft 0 kts 131°
2026-04-26 21:00 38.84202 -77.03787 15 ft 10 kts 131°
2026-04-26 21:01 38.84204 -77.03685 15 ft 8 kts 27°
2026-04-26 21:01 38.84306 -77.03690 16 ft 41 kts 356°
2026-04-26 21:01 38.85007 -77.03761 65 ft 149 kts 356°
2026-04-26 21:01 38.86111 -77.03868 1045 ft 170 kts 358°
2026-04-26 21:02 38.87315 -77.04012 2300 ft 190 kts 348°
2026-04-26 21:02 38.88452 -77.04878 3652 ft 210 kts 324°
2026-04-26 21:02 38.89616 -77.06089 4886 ft 228 kts 324°
2026-04-26 21:02 38.90668 -77.07728 5079 ft 247 kts 303°
2026-04-26 21:03 38.91504 -77.09811 5192 ft 280 kts 302°
2026-04-26 21:03 38.92739 -77.11667 6673 ft 279 kts 329°
2026-04-26 21:03 38.94318 -77.12880 8537 ft 273 kts 332°
2026-04-26 21:03 38.95808 -77.14294 10145 ft 277 kts 317°
2026-04-26 21:04 38.96857 -77.16312 11604 ft 287 kts 296°
2026-04-26 21:04 38.97345 -77.18814 12945 ft 298 kts 285°
2026-04-26 21:04 38.97680 -77.21429 14238 ft 307 kts 279°
2026-04-26 21:04 38.97543 -77.24183 15560 ft 318 kts 263°
2026-04-26 21:05 38.96782 -77.26864 16442 ft 337 kts 247°
2026-04-26 21:05 38.95383 -77.29366 17342 ft 353 kts 229°
2026-04-26 21:05 38.93456 -77.31253 18699 ft 355 kts 213°
2026-04-26 21:05 38.91211 -77.32576 19938 ft 358 kts 205°
2026-04-26 21:06 38.88879 -77.33817 20651 ft 368 kts 205°
2026-04-26 21:06 38.86516 -77.35077 20953 ft 369 kts 205°
2026-04-26 21:06 38.84146 -77.36339 21018 ft 366 kts 205°
2026-04-26 21:06 38.81791 -77.37593 21034 ft 374 kts 205°
2026-04-26 21:07 38.79349 -77.38895 21780 ft 385 kts 205°
2026-04-26 21:07 38.76924 -77.40184 23071 ft 380 kts 205°
2026-04-26 21:07 38.74478 -77.41483 24241 ft 378 kts 205°
2026-04-26 21:07 38.72058 -77.42770 25248 ft 381 kts 205°
2026-04-26 21:08 38.69593 -77.44079 26176 ft 384 kts 205°
2026-04-26 21:08 38.67116 -77.45394 27037 ft 389 kts 205°
2026-04-26 21:08 38.64598 -77.46730 27837 ft 393 kts 205°
2026-04-26 21:08 38.62073 -77.48069 28624 ft 396 kts 205°
2026-04-26 21:09 38.59508 -77.49427 29369 ft 400 kts 205°
2026-04-26 21:09 38.56921 -77.50796 30087 ft 403 kts 205°
2026-04-26 21:09 38.54303 -77.52182 30767 ft 407 kts 205°
2026-04-26 21:09 38.51697 -77.53559 31387 ft 410 kts 205°
2026-04-26 21:10 38.49044 -77.54960 32006 ft 413 kts 205°
2026-04-26 21:10 38.46355 -77.56380 32582 ft 416 kts 206°
2026-04-26 21:10 38.43613 -77.57825 33115 ft 419 kts 206°
2026-04-26 21:10 38.40906 -77.59252 33645 ft 421 kts 206°
2026-04-26 21:11 38.38170 -77.60693 34055 ft 426 kts 206°
2026-04-26 21:11 38.35375 -77.62165 34139 ft 438 kts 206°
2026-04-26 21:11 38.32494 -77.63682 34129 ft 451 kts 206°
2026-04-26 21:12 38.26917 -77.67600 34125 ft 462 kts 217°
2026-04-26 21:12 38.21548 -77.72234 34127 ft 464 kts 217°
2026-04-26 21:13 38.16191 -77.76841 34124 ft 464 kts 217°
2026-04-26 21:13 38.10812 -77.81456 34124 ft 464 kts 217°
2026-04-26 21:14 38.05428 -77.86067 34127 ft 465 kts 217°
2026-04-26 21:14 38.00059 -77.90656 34121 ft 465 kts 217°
2026-04-26 21:15 37.94675 -77.95249 34122 ft 465 kts 217°
2026-04-26 21:15 37.89253 -77.99866 34114 ft 466 kts 217°
2026-04-26 21:16 37.83851 -78.04457 34112 ft 465 kts 217°
2026-04-26 21:16 37.78445 -78.09043 34107 ft 465 kts 217°
2026-04-26 21:17 37.73048 -78.13614 34105 ft 465 kts 216°
2026-04-26 21:17 37.67643 -78.18182 34103 ft 466 kts 216°
2026-04-26 21:18 37.62260 -78.22725 34099 ft 466 kts 216°
2026-04-26 21:18 37.56840 -78.27289 34101 ft 466 kts 216°
2026-04-26 21:19 37.51389 -78.31872 34105 ft 466 kts 216°
2026-04-26 21:19 37.45972 -78.36418 34100 ft 466 kts 216°
2026-04-26 21:20 37.40576 -78.40939 34101 ft 466 kts 216°
2026-04-26 21:20 37.35142 -78.45483 34101 ft 466 kts 216°
2026-04-26 21:21 37.29750 -78.49985 34096 ft 465 kts 216°
2026-04-26 21:21 37.27081 -78.52208 34106 ft 450 kts 216°
2026-04-26 21:21 37.24514 -78.54343 33955 ft 431 kts 216°
2026-04-26 21:21 37.22022 -78.56416 33480 ft 421 kts 216°
2026-04-26 21:22 37.19581 -78.58446 32849 ft 416 kts 216°
2026-04-26 21:22 37.17195 -78.60430 32148 ft 413 kts 216°
2026-04-26 21:22 37.14792 -78.62428 31463 ft 410 kts 216°
2026-04-26 21:23 37.10067 -78.66352 30184 ft 404 kts 216°
2026-04-26 21:23 37.07727 -78.68293 29583 ft 401 kts 216°
2026-04-26 21:23 37.05414 -78.70210 29011 ft 397 kts 216°
2026-04-26 21:23 37.03104 -78.72123 28449 ft 394 kts 215°
2026-04-26 21:24 37.00840 -78.73996 27906 ft 391 kts 215°
2026-04-26 21:24 36.98574 -78.75870 27360 ft 388 kts 215°
2026-04-26 21:24 36.96330 -78.77724 26840 ft 385 kts 214°
2026-04-26 21:24 36.94118 -78.79551 26321 ft 383 kts 214°
2026-04-26 21:25 36.91891 -78.81389 25828 ft 380 kts 214°
2026-04-26 21:25 36.89675 -78.83215 25349 ft 378 kts 214°
2026-04-26 21:25 36.87465 -78.85037 24870 ft 375 kts 214°
2026-04-26 21:25 36.85294 -78.86825 24415 ft 373 kts 214°
2026-04-26 21:26 36.83164 -78.88577 23964 ft 370 kts 214°
2026-04-26 21:26 36.81012 -78.90346 23553 ft 368 kts 214°
2026-04-26 21:26 36.78863 -78.92112 23128 ft 365 kts 214°
2026-04-26 21:26 36.76754 -78.93844 22683 ft 364 kts 214°
2026-04-26 21:27 36.74642 -78.95577 22198 ft 363 kts 214°
2026-04-26 21:27 36.72563 -78.97282 21689 ft 357 kts 214°
2026-04-26 21:27 36.70494 -78.98975 20932 ft 354 kts 213°
2026-04-26 21:27 36.68291 -79.00315 20097 ft 353 kts 196°
2026-04-26 21:28 36.65919 -79.00752 19255 ft 350 kts 176°
2026-04-26 21:28 36.63524 -79.00309 18446 ft 344 kts 164°
2026-04-26 21:28 36.61213 -78.99629 17707 ft 341 kts 164°
2026-04-26 21:28 36.58923 -78.98965 16987 ft 338 kts 163°
2026-04-26 21:29 36.56636 -78.98304 16282 ft 334 kts 164°
2026-04-26 21:29 36.54391 -78.97655 15584 ft 331 kts 164°
2026-04-26 21:29 36.52168 -78.97011 14897 ft 328 kts 163°
2026-04-26 21:29 36.49947 -78.96368 14237 ft 324 kts 163°
2026-04-26 21:30 36.47777 -78.95741 13567 ft 321 kts 163°
2026-04-26 21:30 36.45591 -78.95109 12901 ft 318 kts 163°
2026-04-26 21:30 36.43471 -78.94496 12236 ft 316 kts 164°
2026-04-26 21:30 36.42034 -78.94081 11825 ft 313 kts 164°
2026-04-26 21:31 36.39259 -78.93280 11490 ft 304 kts 164°
2026-04-26 21:31 36.37163 -78.92673 11388 ft 314 kts 164°
2026-04-26 21:31 36.35056 -78.92063 11107 ft 310 kts 164°
2026-04-26 21:31 36.32928 -78.91449 10897 ft 312 kts 164°
2026-04-26 21:32 36.30821 -78.90842 10665 ft 310 kts 164°
2026-04-26 21:32 36.28736 -78.90241 10444 ft 309 kts 165°
2026-04-26 21:32 36.26766 -78.89672 10238 ft 308 kts 165°
2026-04-26 21:32 36.24679 -78.89071 10015 ft 308 kts 165°
2026-04-26 21:33 36.22605 -78.88487 9793 ft 307 kts 165°
2026-04-26 21:33 36.20511 -78.87906 9566 ft 307 kts 165°
2026-04-26 21:33 36.18426 -78.87326 9343 ft 305 kts 165°
2026-04-26 21:33 36.16392 -78.86762 9126 ft 300 kts 165°
2026-04-26 21:34 36.14364 -78.86200 8916 ft 293 kts 165°
2026-04-26 21:34 36.12375 -78.85649 8698 ft 286 kts 165°
2026-04-26 21:34 36.10456 -78.85117 8497 ft 279 kts 165°
2026-04-26 21:34 36.08587 -78.84600 8293 ft 272 kts 165°
2026-04-26 21:35 36.06768 -78.84096 8100 ft 267 kts 165°
2026-04-26 21:35 36.04937 -78.83690 7904 ft 265 kts 172°
2026-04-26 21:35 36.03097 -78.83469 7701 ft 265 kts 173°
2026-04-26 21:35 36.01256 -78.83257 7500 ft 266 kts 173°
2026-04-26 21:36 35.99430 -78.83044 7246 ft 263 kts 173°
2026-04-26 21:36 35.98197 -78.83038 7122 ft 261 kts 186°
2026-04-26 21:36 35.95990 -78.84158 6800 ft 259 kts 221°
2026-04-26 21:36 35.94690 -78.85705 6524 ft 256 kts 228°
2026-04-26 21:37 35.93457 -78.87255 6291 ft 250 kts 227°
2026-04-26 21:37 35.92244 -78.88771 6066 ft 245 kts 227°
2026-04-26 21:37 35.91066 -78.90260 5981 ft 244 kts 227°
2026-04-26 21:37 35.89893 -78.91760 5939 ft 238 kts 227°
2026-04-26 21:38 35.88720 -78.93259 5537 ft 242 kts 227°
2026-04-26 21:38 35.87545 -78.94760 5173 ft 243 kts 227°
2026-04-26 21:38 35.86372 -78.96257 4839 ft 242 kts 227°
2026-04-26 21:38 35.85199 -78.97754 4491 ft 242 kts 227°
2026-04-26 21:39 35.84027 -78.99249 4174 ft 241 kts 227°
2026-04-26 21:39 35.82867 -79.00728 3839 ft 240 kts 227°
2026-04-26 21:39 35.81711 -79.02200 3515 ft 239 kts 227°
2026-04-26 21:39 35.80552 -79.03677 3186 ft 239 kts 227°
2026-04-26 21:40 35.79397 -79.05147 2859 ft 238 kts 227°
2026-04-26 21:40 35.78203 -79.06562 2550 ft 237 kts 215°
2026-04-26 21:40 35.76689 -79.07204 2238 ft 231 kts 176°
2026-04-26 21:40 35.75232 -79.06609 2182 ft 221 kts 136°
2026-04-26 21:41 35.74168 -79.05260 2180 ft 219 kts 126°
2026-04-26 21:41 35.73187 -79.03833 2171 ft 219 kts 125°
2026-04-26 21:41 35.72281 -79.02342 2174 ft 213 kts 109°
2026-04-26 21:41 35.72026 -79.00594 2178 ft 206 kts 85°
2026-04-26 21:42 35.72421 -78.98975 2176 ft 198 kts 51°
2026-04-26 21:42 35.73333 -78.97720 2180 ft 197 kts 46°
2026-04-26 21:42 35.74263 -78.96478 2179 ft 193 kts 45°
2026-04-26 21:42 35.75147 -78.95358 2206 ft 170 kts 44°
2026-04-26 21:43 35.75966 -78.94339 2192 ft 168 kts 44°
2026-04-26 21:43 35.76794 -78.93316 2180 ft 167 kts 43°
2026-04-26 21:43 35.77617 -78.92303 2177 ft 167 kts 43°
2026-04-26 21:43 35.78443 -78.91287 2177 ft 167 kts 43°
2026-04-26 21:44 35.79263 -78.90278 2190 ft 168 kts 43°
2026-04-26 21:44 35.80090 -78.89261 2183 ft 168 kts 43°
2026-04-26 21:44 35.80901 -78.88260 2142 ft 158 kts 43°
2026-04-26 21:44 35.81660 -78.87325 1944 ft 148 kts 43°
2026-04-26 21:45 35.82366 -78.86451 1757 ft 144 kts 42°
2026-04-26 21:45 35.83052 -78.85621 1671 ft 134 kts 42°
2026-04-26 21:45 35.83691 -78.84824 1432 ft 129 kts 43°
2026-04-26 21:45 35.84313 -78.84042 1266 ft 128 kts 43°
2026-04-26 21:46 35.84942 -78.83256 1096 ft 124 kts 42°
2026-04-26 21:46 35.85527 -78.82539 910 ft 114 kts 41°
2026-04-26 21:46 35.86084 -78.81864 775 ft 111 kts 41°
2026-04-26 21:46 35.86636 -78.81186 646 ft 111 kts 42°
2026-04-26 21:47 35.87185 -78.80512 502 ft 111 kts 41°
2026-04-26 21:47 35.87735 -78.79835 381 ft 107 kts 41°
2026-04-26 21:47 35.88205 -78.79266 393 ft 82 kts 44°
2026-04-26 21:47 35.88572 -78.78814 400 ft 67 kts 44°
2026-04-26 21:48 35.88764 -78.78539 401 ft 28 kts 76°
2026-04-26 21:48 35.88714 -78.78404 402 ft 14 kts 133°
2026-04-26 21:48 35.88697 -78.78355 403 ft 5 kts 50°
2026-04-26 21:48 35.88734 -78.78309 403 ft 9 kts 57°
2026-04-26 21:49 35.88707 -78.78230 403 ft 13 kts 139°
2026-04-26 21:49 35.88634 -78.78139 405 ft 16 kts 132°
2026-04-26 21:49 35.88545 -78.78029 407 ft 19 kts 137°
2026-04-26 21:49 35.88442 -78.77902 409 ft 22 kts 135°
2026-04-26 21:50 35.88350 -78.77811 411 ft 11 kts 194°
2026-04-26 21:50 35.88293 -78.77833 412 ft 13 kts 197°
2026-04-26 21:50 35.88168 -78.77927 415 ft 17 kts 227°
2026-04-26 21:50 35.88087 -78.78035 419 ft 10 kts 246°
2026-04-26 21:51 35.88137 -78.78113 418 ft 14 kts 315°
2026-04-26 21:51 35.88148 -78.78179 417 ft 9 kts 224°
2026-04-26 21:51 35.88140 -78.78189 417 ft 0 kts 225°